Regional Weather Roundup
Issued by NWS Lake Charles, LA

Home | Current Version | Previous Version | Text Only | Print | Product List | Glossary On
Versions: 1 2 3 4 5 6 7 8 9 10 11 12 13 14 15 16 17 18 19 20 21 22 23 24 25 26 27 28 29 30 31 32 33 34 35 36 37 38 39 40 41 42 43 44 45 46 47 48 49
000
ASUS44 KLCH 070510
RWRLCH
RWRLCH
REGIONAL WEATHER ROUNDUP
NATIONAL WEATHER SERVICE LAKE CHARLES LA
1200 AM CDT THU MAY 07 2015

Note: "fair" indicates few or no clouds below 12,000 feet with no
significant weather and/or obstructions to visibility.


ACROSS SOUTHEAST TEXAS

CITY           SKY/WX    TMP DP  RH WIND       PRES   REMARKS
BEAUMONT       MOCLDY    74  70  87 SE10      29.96F
BEAUMONT CITY  MOCLDY    73  70  88 SE7       29.97S
ORANGE         CLEAR     74  69  84 SE7       29.99S
JASPER         NOT AVBL
$$

ACROSS CENTRAL LOUISIANA

CITY           SKY/WX    TMP DP  RH WIND       PRES   REMARKS
LEESVILLE      CLEAR     69  65  85 SE5       29.98F
FULLERTON        N/A     70  63  78 CALM      29.97F
ALEXANDRIA INT PTCLDY    70  66  87 SE5       29.99S
ESLER FIELD    CLOUDY    73  66  78 SE6       30.01S
DERIDDER         N/A     69  65  88 CALM      30.01S
OAKDALE        CLEAR     64  62  94 CALM      30.00F
OPELOUSAS        N/A    N/A N/A N/A E3        30.01S
$$

ACROSS SOUTHWEST AND SOUTH CENTRAL LOUISIANA

CITY           SKY/WX    TMP DP  RH WIND       PRES   REMARKS
SULPHUR        CLEAR     74  71  90 SE6       29.99S
LAKE CHARLES   CLEAR     71  68  90 CALM      29.98F
CHENNAULT INT  CLEAR     70  68  94 SE5       29.99S
CAMERON PHI    CLEAR     77  72  83 SE16G23   30.00F
DEQUINCY         N/A     68  68 100 CALM      29.99S
JENNINGS         N/A     70  68  92 SE5       30.00F
LAFAYETTE      PTCLDY    70  66  87 CALM      30.01S
NEW IBERIA       N/A    N/A N/A N/A MISG      30.02S
ABBEVILLE      CLOUDY    71  69  93 CALM      30.01S
PATTERSON      CLEAR    N/A N/A N/A SE5       30.04R
SALT POINT       N/A     72  70  93 CALM      30.01R
$$

SELECTED SITES ACROSS THE REGION

CITY           SKY/WX    TMP DP  RH WIND       PRES   REMARKS
HOUSTON BUSH   MOCLDY    74  72  93 SE8       29.95R
HOUSTON HOBBY  MOCLDY    76  71  85 SE8       29.95R
GALVESTON      MOCLDY    76  73  91 SE17      29.96S
COLLEGE STAT   CLEAR     73  69  87 SE12      29.92S
CONROE         CLOUDY    72  69  90 SE7       29.96S
HUNTSVILLE     MOCLDY    73  69  87 VRB5      29.95R
LUFKIN         CLEAR     72  67  84 SE5       29.97S
SHREVEPORT     PTCLDY    71  67  87 SE7       29.97S
MONROE         PTCLDY    67  62  84 CALM      30.00F
NATCHEZ MS     PTCLDY    70  63  78 SE9       30.03F
BATON ROUGE    CLEAR     70  68  93 E6        30.03S
N.O. INTL ARPT CLEAR     73  66  78 SE6       30.03F
SLIDELL        CLEAR     67  66  97 CALM      30.05R
$$

MARINE REPORTS

STATION/POSITION TIME  TEMP    WIND        PRES    VSBY  WAVE
                       AIR SEA DIR/SP/G                  HT/PER
                 (UTC) (F)     (DEG/KT/KT) (MB)    (MI)  (FT/S)
BUOY 30 S HIGH I 0450   76 76  120/ 17/ 21 1013.5F         4/ 4
SEA RIM ST PARK  0500   75     130/ 14/ 17 1015.2F
PORT ARTHUR      0406      75  130/  7/ 12 1015.1R
SABINE PASS N    0400   76 76  140/ 14/ 19 1015.1R
TEXAS POINT      NOT AVBL
CALCASIEU PASS   0400   76 77  150/ 15/ 19   N/A
LK CHARLES BEACH 0400   72 72              1015.9R
MARSH ISLAND     0400   76     140/ 17/ 20   N/A           0
FRESH WATER LOCK 0400   76 78  120/ 11/ 14 1015.8R
AMERADA PASS     0400          120/  5/  8   N/A
$$



USA.gov is the U.S. government's official web portal to all federal, state and local government web resources and services.